Weather past 2 weeks in Saint-Pierre, Saint Pierre and Miquelon

Now
52 °F

Overcast.


Feels Like: 52 °F
Forecast: 51 / 56 °F
Wind: 3 mph from Southeast

Location: Saint-Pierre

Current Time: Jul 6, 2015 at 12:03:57 AM

Latest Report: Jul 5, 2015 at 11:00 PM


Visibility: 17 mi

Pressure: 29.93 "Hg

Humidity: 90%

Dew point: 49 °F

Location of Saint-PierreLocation

Historic Weather in Saint-Pierre — Graph

°F

Saint-Pierre temperature yesterday

Maximum temperature yesterday: 57 °F (at 1:00 PM)
Minimum temperature yesterday: 51 °F (at 5:00 AM)
Average temperature yesterday: 54 °F

Past Weeks' High & Low Weather Summary

 TemperatureHumidityPressure
High68 °F (Jun 23, 4:00 PM)100% (Jun 24, 11:00 PM)30.27 "Hg (Jun 24, 11:00 PM)
Low44 °F (Jun 24, 5:00 AM)37% (Jun 23, 5:00 PM)29.70 "Hg (Jun 25, 4:00 AM)
Average51 °F90%29.96 "Hg
* Reported Jun 20 11:00 PM — Jul 5 11:00 PM, Saint-Pierre, Weather by CustomWeather, © 2015

Note: Actual official high and low records may vary slightly from our data, if they occured in-between our weather recording intervals... More about our weather records

Advertising

Saint-Pierre weather history for previous 24 hours

 ConditionsComfort  
Time TempWeatherWind HumidityBarometerVisibility
11:00 PM
Sun, Jul 5
52 °FOvercast.3 mph90%29.93 "Hg17 mi
10:00 PM53 °FOvercast.3 mph89%29.92 "Hg12 mi
9:00 PM53 °FOvercast.5 mph89%29.91 "Hg9 mi
8:00 PM56 °FOvercast.6 mph83%29.90 "Hg22 mi
7:00 PM53 °FOvercast.7 mph89%29.91 "Hg12 mi
6:00 PM53 °FLow clouds.6 mph90%29.91 "Hg12 mi
5:00 PM54 °FOvercast.6 mph87%29.91 "Hg12 mi
4:00 PM54 °FOvercast.7 mph88%29.93 "Hg12 mi
3:00 PM55 °FOvercast.9 mph84%29.93 "Hg12 mi
2:00 PM56 °FOvercast.7 mph83%29.94 "Hg12 mi
1:00 PM57 °FOvercast.6 mph85%29.95 "Hg12 mi
12:00 PM56 °FOvercast.7 mph86%29.95 "Hg12 mi
11:00 AM56 °FOvercast.8 mph88%29.95 "Hg12 mi
10:00 AM56 °FOvercast.7 mph87%29.97 "Hg22 mi
9:00 AM54 °FOvercast.6 mph93%29.98 "Hg12 mi
8:00 AM53 °FOvercast.3 mph95%29.99 "Hg11 mi
6:00 AM52 °FOvercast.7 mph96%29.98 "Hg12 mi
5:00 AM51 °FOvercast.7 mph96%29.97 "Hg12 mi
4:00 AM51 °FCool.5 mph96%29.98 "Hg12 mi
3:00 AM52 °FOvercast.9 mph96%29.98 "Hg12 mi
12:00 AM51 °FOvercast.3 mph95%30.00 "Hg7 mi
Weather by CustomWeather, © 2015

See weather overviewHow to use our weather pages